This is the latest recevied weather packets stored in our database for station/object NN5DX-12. If no packets are shown the sender has not sent any weather packets the latest 10 day(s).
| Time | Temp. | Humidity | Pressure | Rain* | Wind** | Luminosity | Snow |
|---|---|---|---|---|---|---|---|
| 1777489516 | 4.44° C | 71% | 1019.6 hPa | 0 mm | - | - | - |
| 1777489217 | 5° C | 66% | 1019.9 hPa | 0 mm | - | - | - |
| 1777488917 | 5° C | 66% | 1019.9 hPa | 0 mm | - | - | - |
| 1777488616 | 5.56° C | 64% | 1019.8 hPa | 0 mm | - | - | - |
| 1777488317 | 5.56° C | 63% | 1019.7 hPa | 0 mm | - | - | - |
| 1777488017 | 5.56° C | 63% | 1019.7 hPa | 0 mm | - | - | - |
| 1777487716 | 6.11° C | 64% | 1019.8 hPa | 0 mm | - | - | - |
| 1777487417 | 6.11° C | 62% | 1020.3 hPa | 0 mm | - | - | - |
| 1777487116 | 6.67° C | 61% | 1020.2 hPa | 0 mm | - | - | - |
| 1777486816 | 6.11° C | 64% | 1020.4 hPa | 0 mm | - | - | - |
| 1777486516 | 6.11° C | 66% | 1020.5 hPa | 0 mm | - | - | - |
| 1777486217 | 6.11° C | 64% | 1020.5 hPa | 0 mm | - | - | - |
| 1777485916 | 6.11° C | 62% | 1020.5 hPa | 0 mm | - | - | - |
| 1777485616 | 6.11° C | 61% | 1020.6 hPa | 0 mm | - | - | - |
| 1777485317 | 5.56° C | 63% | 1020.7 hPa | 0 mm | - | - | - |
| 1777485016 | 5.56° C | 63% | 1020.6 hPa | 0 mm | - | - | - |
| 1777484716 | 6.11° C | 60% | 1021.2 hPa | 0 mm | - | - | - |
| 1777484416 | 6.11° C | 60% | 1021.1 hPa | 0 mm | - | - | - |
| 1777484117 | 6.11° C | 59% | 1021.2 hPa | 0 mm | - | - | - |
| 1777483816 | 6.11° C | 54% | 1021.1 hPa | 0 mm | - | - | - |
| 1777483517 | 6.11° C | 56% | 1021.2 hPa | 0 mm | - | - | - |
| 1777483216 | 6.67° C | 56% | 1021.1 hPa | 0 mm | - | - | - |
| 1777482916 | 6.67° C | 52% | 1021.6 hPa | 0 mm | - | - | - |
| 1777482616 | 6.67° C | 54% | 1021.7 hPa | 0 mm | - | - | - |
| 1777482316 | 6.67° C | 53% | 1021.7 hPa | 0 mm | - | - | - |
* Rain latest hour (hover to see other rain measurements)
** Current wind speed in m/s (hover to see current wind gust speed)